Regional Weather Roundup
Issued by NWS

Home | Current Version | Previous Version | Graphics & Text | Print | Product List | Glossary On
Versions: 1 2 3 4 5 6 7 8 9 10 11 12 13 14 15 16 17 18 19 20 21 22 23 24 25 26 27 28 29 30 31 32 33 34 35 36 37 38 39 40 41 42 43 44 45 46 47 48 49 50
190
ASUS43 KLSX 180407
RWRMO

WEATHER SUMMARY FOR MISSOURI
NATIONAL WEATHER SERVICE SPRINGFIELD MO
1000 PM CST SUN DEC 17 2017

NOTE: "FAIR" INDICATES FEW OR NO CLOUDS BELOW 12,000 FEET WITH NO
       SIGNIFICANT WEATHER AND/OR OBSTRUCTIONS TO VISIBILITY.
       CURRENT SKY AND/OR WEATHER CONDITIONS ARE NOT AVAILABLE FOR
       CHILLICOTHE AND FARMINGTON.

MOZ001>031-035>038-043-044-053-054-180500-
...NORTHERN AND WESTERN MISSOURI...

CITY           SKY/WX    TMP DP  RH WIND       PRES   REMARKS
KANSAS CTY INT CLOUDY    44  42  93 SW12      30.02R
KANSAS C DTWN  CLOUDY    45  41  86 SW10      30.03S
LEE`S SUMMIT   CLOUDY    41  41 100 SW9       30.04R
ST JOSEPH      CLOUDY    41  41 100 NE3       30.02S FOG
CHILLICOTHE      N/A     44  43  96 CALM      30.03R
KIRKSVILLE     CLOUDY    44  32  62 SW8       30.02R HAZE

$$
MOZ066>068-077>081-088>096-101>105-180500-
...SOUTHWEST MISSOURI...

CITY           SKY/WX    TMP DP  RH WIND       PRES   REMARKS
SPRINGFIELD    CLOUDY    45  45 100 S5        30.06F FOG
JOPLIN         CLOUDY    44  44 100 SW5       30.08S
BRANSON        CLOUDY    45  45 100 CALM      30.08F FOG

$$
MOZ032>034-039>042-045>050-055>058-069>072-180500-
...CENTRAL MISSOURI...

CITY           SKY/WX    TMP DP  RH WIND       PRES   REMARKS
COLUMBIA       CLOUDY    45  44  97 SW9       30.05S
JEFFERSON CITY CLOUDY    47  42  83 SW7       30.07S
ROLLA          CLOUDY    45  44  97 SW6       30.07S
SEDALIA        CLOUDY    44  43  96 S9        30.06R
WHITEMAN AFB   CLOUDY    39  37  93 SW7       30.01R
WARRENSBURG    PTCLDY    41  37  87 S5        30.05R
OSAGE BEACH    CLOUDY    45  42  89 CALM      30.08S

$$
MOZ051-052-059>065-180500-
...EAST CENTRAL MISSOURI...

CITY           SKY/WX    TMP DP  RH WIND       PRES   REMARKS
ST LOUIS INTL  CLOUDY    48  45  89 W6        30.06F
SPIRIT OF STL  CLOUDY    47  44  90 W3        30.06F
ST CHARLES     CLOUDY    48  44  86 SW8       30.05F

$$
MOZ072>076-082>087-097>100-106>115-180500-
...SOUTH CENTRAL AND SOUTHEAST MISSOURI...

CITY           SKY/WX    TMP DP  RH WIND       PRES   REMARKS
CAPE GIRARDEAU CLOUDY    46  43  89 S6        30.12S
FARMINGTON     CLOUDY    45  43  93 SW6       30.10R
POPLAR BLUFF   CLOUDY    46  44  93 S5        30.12S
WEST PLAINS    FOG       45  44  97 S5        30.09S VSB 3/4

$$



USA.gov is the U.S. government's official web portal to all federal, state and local government web resources and services.